TimeCDT,TemperatureF,Dew PointF,Humidity,Sea Level PressureIn,VisibilityMPH,Wind Direction,Wind SpeedMPH,Gust SpeedMPH,PrecipitationIn,Events,Conditions,WindDirDegrees,DateUTC
12:13 AM,60.8,46.4,59,29.69,10.0,Calm,Calm,-,N/A,,Scattered Clouds,0,2011-10-12 05:13:00
12:33 AM,60.8,46.4,59,29.68,10.0,Calm,Calm,-,N/A,,Mostly Cloudy,0,2011-10-12 05:33:00
12:53 AM,60.8,46.4,59,29.68,10.0,SSE,6.9,-,N/A,,Mostly Cloudy,160,2011-10-12 05:53:00
1:13 AM,60.8,48.2,63,29.68,10.0,SSE,6.9,-,N/A,,Clear,150,2011-10-12 06:13:00
1:33 AM,60.8,46.4,59,29.68,10.0,SSE,8.1,-,N/A,,Mostly Cloudy,160,2011-10-12 06:33:00
1:53 AM,60.8,46.4,59,29.67,10.0,SSE,8.1,-,N/A,,Mostly Cloudy,150,2011-10-12 06:53:00
2:33 AM,60.8,48.2,63,29.67,10.0,Calm,Calm,-,N/A,,Scattered Clouds,0,2011-10-12 07:33:00
3:13 AM,57.2,46.4,67,29.66,10.0,SE,5.8,-,N/A,,Clear,140,2011-10-12 08:13:00
3:33 AM,57.2,46.4,67,29.66,10.0,Calm,Calm,-,N/A,,Clear,0,2011-10-12 08:33:00
3:53 AM,57.2,46.4,67,29.67,10.0,Calm,Calm,-,N/A,,Clear,0,2011-10-12 08:53:00
4:13 AM,57.2,46.4,67,29.66,10.0,Calm,Calm,-,N/A,,Clear,0,2011-10-12 09:13:00
4:33 AM,57.2,46.4,67,29.66,10.0,SSE,6.9,-,N/A,,Clear,150,2011-10-12 09:33:00
4:53 AM,57.2,48.2,72,29.66,10.0,Calm,Calm,-,N/A,,Clear,0,2011-10-12 09:53:00
5:13 AM,57.2,48.2,72,29.66,10.0,South,15.0,18.4,N/A,,Scattered Clouds,180,2011-10-12 10:13:00
5:32 AM,57.2,48.2,72,29.66,10.0,South,15.0,18.4,N/A,Thunderstorm,Mostly Cloudy,180,2011-10-12 10:32:00
5:53 AM,55.4,51.8,88,29.67,10.0,Calm,Calm,-,N/A,Rain,Rain,0,2011-10-12 10:53:00
5:55 AM,55.4,51.8,88,29.67,10.0,Calm,Calm,-,0.01,Rain,Light Rain,0,2011-10-12 10:55:00
6:13 AM,53.6,51.8,94,29.67,10.0,Calm,Calm,-,0.01,Rain,Light Rain,0,2011-10-12 11:13:00
6:32 AM,53.6,51.8,94,29.67,10.0,Calm,Calm,-,0.01,Thunderstorm,Unknown,0,2011-10-12 11:32:00
6:53 AM,53.6,51.8,94,29.67,10.0,Calm,Calm,-,0.02,Rain,Light Rain,0,2011-10-12 11:53:00
7:32 AM,53.6,50.0,88,29.66,10.0,Calm,Calm,-,N/A,,Overcast,0,2011-10-12 12:32:00
7:53 AM,53.6,51.8,94,29.66,10.0,Calm,Calm,-,N/A,,Scattered Clouds,0,2011-10-12 12:53:00
8:13 AM,53.6,51.8,94,29.66,10.0,Calm,Calm,-,N/A,,Clear,0,2011-10-12 13:13:00
8:33 AM,53.6,51.8,94,29.66,10.0,Calm,Calm,-,N/A,,Clear,0,2011-10-12 13:33:00
8:53 AM,53.6,51.8,94,29.66,10.0,Calm,Calm,-,N/A,,Clear,0,2011-10-12 13:53:00
9:12 AM,53.6,51.8,94,29.66,10.0,Calm,Calm,-,N/A,,Clear,0,2011-10-12 14:12:00
9:33 AM,55.4,51.8,88,29.66,10.0,Calm,Calm,-,N/A,,Clear,0,2011-10-12 14:33:00
9:53 AM,55.4,53.6,94,29.66,10.0,SE,3.5,-,N/A,,Scattered Clouds,140,2011-10-12 14:53:00
10:13 AM,57.2,55.4,94,29.66,10.0,Calm,Calm,-,N/A,,Mostly Cloudy,0,2011-10-12 15:13:00
10:33 AM,57.2,53.6,88,29.66,10.0,Calm,Calm,-,N/A,,Scattered Clouds,0,2011-10-12 15:33:00
10:53 AM,57.2,53.6,88,29.66,10.0,South,3.5,-,N/A,,Scattered Clouds,180,2011-10-12 15:53:00
11:13 AM,57.2,53.6,88,29.66,10.0,Calm,Calm,-,N/A,,Clear,0,2011-10-12 16:13:00
11:33 AM,59.0,53.6,82,29.65,10.0,South,10.4,-,N/A,,Clear,190,2011-10-12 16:33:00
11:53 AM,59.0,53.6,82,29.65,10.0,SSW,13.8,-,N/A,,Scattered Clouds,200,2011-10-12 16:53:00
12:13 PM,60.8,53.6,77,29.65,10.0,South,16.1,-,N/A,,Mostly Cloudy,190,2011-10-12 17:13:00
12:33 PM,59.0,53.6,82,29.66,10.0,South,15.0,19.6,N/A,,Overcast,190,2011-10-12 17:33:00
12:53 PM,59.0,53.6,82,29.65,10.0,South,13.8,-,N/A,,Overcast,190,2011-10-12 17:53:00
1:13 PM,60.8,53.6,77,29.65,10.0,SSW,15.0,-,N/A,,Overcast,200,2011-10-12 18:13:00
1:33 PM,60.8,53.6,77,29.64,10.0,South,15.0,23.0,N/A,,Mostly Cloudy,180,2011-10-12 18:33:00
1:53 PM,60.8,53.6,77,29.64,10.0,South,18.4,-,N/A,,Mostly Cloudy,190,2011-10-12 18:53:00
2:13 PM,62.6,53.6,72,29.63,10.0,South,13.8,-,N/A,,Scattered Clouds,190,2011-10-12 19:13:00
2:33 PM,62.6,53.6,72,29.63,10.0,South,15.0,20.7,N/A,,Mostly Cloudy,190,2011-10-12 19:33:00
2:53 PM,62.6,53.6,72,29.63,10.0,South,11.5,17.3,N/A,,Scattered Clouds,190,2011-10-12 19:53:00
3:13 PM,62.6,53.6,72,29.63,10.0,SSW,12.7,-,N/A,,Scattered Clouds,200,2011-10-12 20:13:00
3:33 PM,62.6,55.4,77,29.63,10.0,Calm,Calm,-,N/A,,Overcast,0,2011-10-12 20:33:00
4:33 PM,64.4,51.8,64,29.63,10.0,Calm,Calm,-,N/A,,Clear,0,2011-10-12 21:33:00
4:53 PM,64.4,51.8,64,29.63,10.0,Calm,Calm,-,N/A,,Clear,0,2011-10-12 21:53:00
5:13 PM,64.4,51.8,64,29.63,10.0,Calm,Calm,-,N/A,,Clear,0,2011-10-12 22:13:00
5:33 PM,62.6,53.6,72,29.63,10.0,Calm,Calm,-,N/A,,Clear,0,2011-10-12 22:33:00
5:53 PM,62.6,55.4,77,29.63,10.0,Calm,Calm,-,N/A,,Clear,0,2011-10-12 22:53:00
6:13 PM,60.8,51.8,72,29.64,10.0,Calm,Calm,-,N/A,,Clear,0,2011-10-12 23:13:00
6:33 PM,60.8,51.8,72,29.64,10.0,Calm,Calm,-,N/A,,Clear,0,2011-10-12 23:33:00
6:53 PM,57.2,51.8,82,29.64,10.0,Calm,Calm,-,N/A,,Mostly Cloudy,0,2011-10-12 23:53:00
7:13 PM,57.2,51.8,82,29.65,10.0,Calm,Calm,-,N/A,,Mostly Cloudy,0,2011-10-13 00:13:00
7:32 PM,57.2,51.8,82,29.64,10.0,Calm,Calm,-,N/A,,Scattered Clouds,0,2011-10-13 00:32:00
7:53 PM,55.4,51.8,88,29.64,10.0,Calm,Calm,-,N/A,,Scattered Clouds,0,2011-10-13 00:53:00
8:12 PM,55.4,50.0,82,29.65,10.0,Calm,Calm,-,N/A,,Scattered Clouds,0,2011-10-13 01:12:00
8:33 PM,53.6,50.0,88,29.65,10.0,Calm,Calm,-,N/A,,Scattered Clouds,0,2011-10-13 01:33:00
8:53 PM,55.4,51.8,88,29.65,10.0,Calm,Calm,-,N/A,,Mostly Cloudy,0,2011-10-13 01:53:00
9:12 PM,55.4,51.8,88,29.66,10.0,West,20.7,-,N/A,,Overcast,280,2011-10-13 02:12:00
9:33 PM,51.8,48.2,88,29.68,2.5,West,16.1,21.9,0.39,Rain-Thunderstorm,Heavy Thunderstorms and Rain,280,2011-10-13 02:33:00
9:53 PM,51.8,50.0,94,29.68,10.0,Calm,Calm,-,0.52,Rain-Thunderstorm,Rain,0,2011-10-13 02:53:00
9:55 PM,51.8,50.0,94,29.67,10.0,Calm,Calm,-,0.52,Rain-Thunderstorm,Rain,0,2011-10-13 02:55:00
10:09 PM,51.8,50.0,94,29.65,10.0,North,8.1,18.4,0.03,Rain,Rain,10,2011-10-13 03:09:00
10:33 PM,51.8,48.2,88,29.65,10.0,NNW,12.7,-,0.02,Rain,Light Rain,330,2011-10-13 03:33:00
10:53 PM,53.6,48.2,82,29.66,10.0,NW,8.1,-,0.02,,Scattered Clouds,320,2011-10-13 03:53:00
10:55 PM,51.8,48.2,88,29.66,10.0,NW,6.9,-,0.02,,Scattered Clouds,320,2011-10-13 03:55:00
11:13 PM,51.8,48.2,88,29.66,10.0,Calm,Calm,-,N/A,,Scattered Clouds,0,2011-10-13 04:13:00
11:32 PM,51.8,48.2,88,29.66,10.0,WNW,5.8,-,N/A,,Clear,300,2011-10-13 04:32:00